Overview Statistics Trail Chart Weather Telemetry Raw packets
 

This is the latest recevied weather packets stored in our database for station/object IZ7EXI-13. If no packets are shown the sender has not sent any weather packets the latest 10 day(s).

<< 31 32 33 34 35 36 37 >>
Time Temp. Humidity Pressure Rain* Wind** Luminosity Snow
1788074428 32.22° C 36% 1015.5 hPa - - - -
1788073527 31.67° C 32% 1015.5 hPa - - - -
1788072663 31.11° C 33% 1015.6 hPa - - - -
1788072627 31.11° C 33% 1015.6 hPa - - - -
1788071727 31.11° C 34% 1015.5 hPa - - - -
1788070858 30.56° C 35% 1015.3 hPa - - - -
1788070827 30.56° C 35% 1015.3 hPa - - - -
1788069926 30° C 35% 1015 hPa - - - -
1788069026 29.44° C 35% 1015.1 hPa - - - -
1788068126 29.44° C 34% 1015.1 hPa - - - -
1788067226 29.44° C 34% 1014.8 hPa - - - -
1788066326 29.44° C 34% 1015.2 hPa - - - -
1788065447 28.33° C 35% 1015.6 hPa - - - -
1788065425 28.33° C 35% 1015.6 hPa - - - -
1788064525 28.33° C 36% 1015.2 hPa - - - -
1788063625 28.33° C 36% 1015.2 hPa - - - -
1788062725 28.33° C 36% 1015.4 hPa - - - -
1788061825 28.89° C 36% 1015.6 hPa - - - -
1788060924 28.89° C 36% 1015.8 hPa - - - -
1788060024 28.89° C 36% 1015.9 hPa - - - -
1788059124 28.89° C 36% 1015.8 hPa - - - -
1788058224 28.89° C 36% 1015.9 hPa - - - -
1788057323 28.89° C 35% 1015.9 hPa - - - -
1788056457 28.89° C 35% 1015.9 hPa - - - -
1788056423 28.89° C 35% 1015.9 hPa - - - -

* Rain since midnight (hover to see other rain measurements)
** Current wind speed in m/s (hover to see current wind gust speed)